Вернуться в каталог

STARLINK-31025

АктивенСвязьVLEO
NORAD 58634·PAYLOAD·🇺🇸 United States

Запущен Dec 23, 2023 с Cape Canaveral Space Force Station

Loading…

Ближайшие Пролёты (ближайшие 24 часа)

TLE

СвежийSource: CelesTrak SupGP

Эпоха: Sep 15, 2026, 02:45 UTC

1 58634C 23203S   26258.11506944 -.00002579  00000+0 -93504-4 0  2586
2 58634  43.0019  76.9306 0001598 268.9939 145.6567 15.27548485    19

Отслеживайте STARLINK-31025 в реальном времени с AllMySat

Download on the App Store